EW5321 Weather Reports


Display with metric or nautical units.
time (UTC)temp
F
wind
direction
speed
MPH
gust
MPH
rain 1hr
in
rain 24hr
in
rain mn
in
humidity
%
barometer
mb
20260509101615 46 102 0.0 1.0 0.00 0.15 0.00 92 1008.7
20260509100616 46 144 1.0 2.0 0.00 0.14 0.00 91 1008.7
20260509095616 46 184 0.0 1.0 0.00 0.14 0.00 90 1008.8
20260509094637 46 194 1.0 2.0 0.00 0.14 0.00 90 1008.9
20260509093616 46 196 1.0 2.0 0.00 0.14 0.00 89 1008.9
20260509092616 46 0.0 0.0 0.00 0.14 0.00 89 1008.9
20260509091617 45 0.0 0.0 0.00 0.14 0.00 88 1008.8
20260509090617 46 201 0.0 1.0 0.00 0.14 0.00 88 1008.9
20260509085738 45 195 1.0 2.0 0.00 0.14 0.00 87 1008.8
20260509084618 45 213 2.0 4.0 0.00 0.14 0.00 87 1008.8
20260509083617 44 101 0.0 1.0 0.00 0.14 0.00 86 1008.8
20260509082618 44 202 0.0 1.0 0.00 0.14 0.00 86 1009.1
20260509081618 44 248 2.0 2.0 0.00 0.14 0.00 85 1009.2
20260509080618 44 231 0.0 1.0 0.00 0.14 0.00 84 1009.1
20260509075616 44 237 2.0 3.0 0.00 0.14 0.00 83 1009.4
20260509074616 45 224 1.0 2.0 0.00 0.14 0.00 82 1009.4
20260509073616 45 194 1.0 3.0 0.00 0.14 0.00 80 1009.5
20260509072616 46 207 0.0 0.0 0.00 0.14 0.00 78 1009.6
20260509071637 47 99 2.0 2.0 0.00 0.14 0.00 77 1009.5
20260509070616 47 233 4.0 5.0 0.00 0.14 0.00 75 1009.6
20260509065616 47 222 2.0 3.0 0.00 0.14 0.00 74 1009.6
20260509064617 47 243 5.0 6.0 0.00 0.14 0.00 74 1009.7
20260509063617 46 228 4.0 5.0 0.00 0.14 0.00 75 1009.7
20260509062637 46 207 2.0 3.0 0.00 0.14 0.00 73 1009.9
20260509061617 47 215 2.0 3.0 0.00 0.14 0.00 70 1010.1
20260509060617 47 245 2.0 3.0 0.00 0.14 0.00 68 1010.1
20260509055617 47 260 2.0 3.0 0.00 0.14 0.00 68 1010.2
20260509054617 47 226 1.0 2.0 0.00 0.14 0.00 67 1010.2
20260509053638 47 242 2.0 3.0 0.00 0.14 0.00 66 1010.4
20260509052618 47 242 4.0 5.0 0.00 0.14 0.00 66 1010.6
20260509051638 47 254 3.0 3.0 0.00 0.14 0.00 67 1010.5
20260509050618 47 276 3.0 3.0 0.00 0.16 0.00 66 1010.5
20260509045618 46 273 3.0 3.0 0.00 0.16 0.00 66 1010.6
20260509044636 46 269 3.0 4.0 0.00 0.16 0.00 67 1010.5
20260509043616 45 268 3.0 4.0 0.00 0.16 0.00 68 1010.6
20260509042616 45 261 4.0 4.0 0.00 0.16 0.00 70 1010.7
20260509041616 45 262 4.0 5.0 0.00 0.16 0.00 70 1010.7
20260509040617 45 263 4.0 4.0 0.00 0.16 0.00 70 1010.7
20260509035616 44 265 4.0 5.0 0.00 0.16 0.16 72 1010.6
20260509034616 44 264 4.0 5.0 0.00 0.16 0.16 72 1010.8
20260509033617 44 261 4.0 5.0 0.00 0.16 0.16 72 1010.9
20260509032617 43 262 3.0 4.0 0.00 0.16 0.16 75 1011.0
20260509031618 43 263 4.0 4.0 0.00 0.16 0.16 80 1011.1
20260509030637 43 281 3.0 3.0 0.00 0.16 0.16 78 1011.2
20260509025638 44 267 3.0 3.0 0.00 0.16 0.16 75 1011.1
20260509024618 45 271 2.0 3.0 0.00 0.16 0.16 72 1011.0
20260509023618 44 283 3.0 3.0 0.00 0.16 0.16 75 1011.1
20260509022619 45 284 3.0 3.0 0.00 0.16 0.16 72 1011.2
20260509021618 44 279 2.0 3.0 0.00 0.16 0.16 75 1011.3
20260509020618 44 286 3.0 3.0 0.00 0.16 0.16 77 1011.4
20260509015616 44 265 3.0 4.0 0.00 0.16 0.16 77 1011.3
20260509014615 44 279 3.0 3.0 0.00 0.16 0.16 76 1011.4
20260509013616 44 280 2.0 3.0 0.00 0.16 0.16 76 1011.2
20260509012616 44 270 3.0 3.0 0.00 0.16 0.16 78 1011.2
20260509011616 44 282 2.0 3.0 0.00 0.16 0.16 75 1011.1
20260509010616 44 279 2.0 3.0 0.00 0.16 0.16 77 1010.9
20260509005616 45 270 2.0 3.0 0.00 0.16 0.16 76 1010.8
20260509004617 45 268 2.0 3.0 0.00 0.16 0.16 74 1010.6
20260509003617 45 281 2.0 3.0 0.00 0.16 0.16 75 1010.6
20260509002638 46 288 2.0 3.0 0.00 0.16 0.16 72 1010.4
20260509001618 47 300 2.0 2.0 0.00 0.16 0.16 69 1010.4
20260509000618 48 279 2.0 2.0 0.00 0.16 0.16 68 1010.2
20260508235618 49 284 1.0 2.0 0.00 0.16 0.16 61 1010.1
20260508234617 50 279 0.0 1.0 0.00 0.16 0.16 58 1010.0
20260508233618 50 312 0.0 1.0 0.00 0.16 0.16 57 1009.9
20260508232618 51 298 0.0 1.0 0.00 0.16 0.16 55 1009.8
20260508231618 51 304 1.0 2.0 0.00 0.16 0.16 57 1009.8
20260508230618 52 0.0 0.0 0.00 0.16 0.16 56 1009.8
20260508225618 52 84 0.0 1.0 0.00 0.16 0.16 54 1009.8
20260508224639 53 29 0.0 1.0 0.00 0.16 0.16 55 1009.9
20260508223616 53 355 0.0 0.0 0.00 0.16 0.16 54 1009.8
20260508222615 53 16 1.0 2.0 0.00 0.16 0.16 56 1009.8
20260508221616 54 35 0.0 1.0 0.00 0.16 0.16 55 1009.7
20260508220617 54 54 0.0 1.0 0.00 0.16 0.16 53 1009.7
20260508215616 54 53 2.0 4.0 0.00 0.16 0.16 54 1009.8
20260508214616 54 14 2.0 6.0 0.00 0.16 0.16 52 1009.7
20260508213617 54 91 5.0 6.0 0.00 0.16 0.16 53 1009.7
20260508212617 54 39 1.0 3.0 0.00 0.16 0.16 54 1009.9
20260508211637 55 44 4.0 5.0 0.00 0.16 0.16 53 1009.9
20260508210618 54 79 3.0 4.0 0.00 0.16 0.16 54 1009.9
20260508205617 53 96 2.0 3.0 0.00 0.16 0.16 59 1010.0
20260508204618 53 75 1.0 2.0 0.00 0.16 0.16 56 1010.0
20260508203618 53 22 3.0 4.0 0.00 0.16 0.16 56 1010.1
20260508202639 54 80 3.0 4.0 0.00 0.16 0.16 56 1010.1
20260508201616 54 39 2.0 6.0 0.00 0.16 0.16 57 1010.3
20260508200636 54 218 2.0 4.0 0.00 0.16 0.16 50 1010.3
20260508195616 54 8 4.0 8.0 0.00 0.16 0.16 54 1010.4
20260508194616 53 94 4.0 6.0 0.00 0.16 0.16 60 1010.5
20260508193616 53 78 5.0 6.0 0.00 0.16 0.16 59 1010.6
20260508192616 53 50 2.0 4.0 0.00 0.16 0.16 61 1010.9
20260508191616 53 194 4.0 7.0 0.00 0.16 0.16 54 1010.8
20260508190617 54 246 4.0 8.0 0.00 0.16 0.16 53 1011.0
20260508185617 54 244 6.0 8.0 0.00 0.16 0.16 55 1011.0
20260508184617 54 233 5.0 7.0 0.00 0.16 0.16 56 1011.0
20260508183618 53 265 3.0 5.0 0.00 0.16 0.16 54 1011.1
20260508182617 53 355 3.0 5.0 0.00 0.16 0.16 57 1011.3
20260508181617 53 303 3.0 5.0 0.00 0.16 0.16 57 1011.4
20260508180617 52 342 2.0 4.0 0.00 0.16 0.16 57 1011.5
20260508175638 52 337 2.0 3.0 0.00 0.16 0.16 60 1011.7
20260508174618 50 238 4.0 6.0 0.00 0.16 0.16 68 1011.7
20260508173619 49 244 3.0 7.0 0.00 0.16 0.16 69 1011.9
20260508172618 48 219 4.0 7.0 0.00 0.16 0.16 71 1011.8
20260508171616 47 190 3.0 5.0 0.00 0.16 0.16 70 1012.0
20260508170618 47 271 3.0 4.0 0.00 0.16 0.16 73 1012.2
20260508165616 46 249 4.0 5.0 0.00 0.16 0.16 74 1012.2
20260508164616 45 166 1.0 2.0 0.00 0.16 0.16 80 1012.4
20260508163616 44 82 3.0 4.0 0.00 0.16 0.16 82 1012.6
20260508162617 45 101 4.0 5.0 0.00 0.16 0.16 82 1012.7
20260508161617 45 74 2.0 4.0 0.00 0.16 0.16 82 1012.5
20260508160617 45 90 3.0 4.0 0.00 0.16 0.16 82 1012.3
20260508155617 45 306 0.0 1.0 0.00 0.16 0.16 79 1012.5
20260508154618 45 248 2.0 3.0 0.00 0.16 0.16 81 1012.4
20260508153617 44 69 2.0 3.0 0.00 0.16 0.16 89 1012.3
20260508152658 41 124 2.0 3.0 0.00 0.16 0.16 91 1012.6
20260508151618 41 74 1.0 3.0 0.00 0.16 0.16 92 1012.7
20260508150618 41 53 3.0 4.0 0.01 0.16 0.16 92 1012.5
20260508145618 40 97 2.0 4.0 0.01 0.16 0.16 91 1012.6
20260508144618 41 98 4.0 6.0 0.01 0.16 0.16 89 1012.3
20260508143618 41 66 1.0 3.0 0.01 0.16 0.16 89 1012.3
20260508142638 39 24 0.0 2.0 0.01 0.16 0.16 91 1012.4
20260508141638 38 222 0.0 2.0 0.02 0.15 0.15 92 1012.0
20260508140616 38 263 0.0 1.0 0.04 0.15 0.15 93 1012.8
20260508135636 38 327 1.0 2.0 0.05 0.15 0.15 93 1012.8
20260508134616 38 305 1.0 2.0 0.07 0.15 0.15 92 1012.6
20260508133616 38 71 2.0 3.0 0.08 0.14 0.14 92 1012.3
20260508132616 38 4 3.0 5.0 0.11 0.14 0.14 92 1012.3
20260508131617 38 256 0.0 1.0 0.12 0.13 0.13 92 1012.5
20260508130616 38 72 1.0 2.0 0.10 0.11 0.11 91 1012.5
20260508125657 38 315 2.0 3.0 0.09 0.10 0.10 90 1012.4
20260508124617 39 8 1.0 4.0 0.07 0.08 0.08 89 1012.2
20260508123617 40 283 2.0 3.0 0.05 0.06 0.06 87 1012.2
20260508122618 41 340 2.0 5.0 0.02 0.03 0.03 84 1011.9
20260508121618 41 356 0.0 1.0 0.00 0.01 0.01 85 1011.6
20260508120618 41 247 2.0 3.0 0.00 0.01 0.01 84 1011.1
20260508115639 41 110 2.0 3.0 0.00 0.01 0.01 84 1010.6
20260508114618 41 0.0 0.0 0.00 0.01 0.01 85 1010.6
20260508113619 41 197 1.0 3.0 0.00 0.01 0.01 85 1010.7
20260508112615 41 136 1.0 2.0 0.00 0.01 0.01 85 1010.7
20260508111616 40 250 2.0 2.0 0.00 0.01 0.01 86 1010.9
20260508110616 40 95 2.0 2.0 0.00 0.01 0.01 86 1010.8
20260508105617 40 108 2.0 3.0 0.00 0.01 0.01 86 1010.9
20260508104617 40 116 1.0 2.0 0.00 0.01 0.01 85 1011.0
20260508103617 40 233 2.0 2.0 0.00 0.01 0.01 86 1011.0
20260508102617 40 49 2.0 2.0 0.00 0.01 0.01 86 1011.1